Fairchild Air Force Base, WA

6:18 PM PDT on September 29, 2016 (GMT -0700)
Fairchild Air Force Base

Weather History for KSKA - December, 2012

Change the Weather History Date:

Monday, December 31, 2012

  Actual Average Record
Temperature  
Mean Temperature 17 °F -  
Max Temperature 24 °F 31 °F 93 °F (1996)
Min Temperature 10 °F 21 °F -2 °F (2010)
Degree Days  
Heating Degree Days 48    
Moisture  
Dew Point 21 °F    
Average Humidity 100    
Maximum Humidity 100    
Minimum Humidity 99    
Precipitation  
Precipitation 0.00 in - - ()
Sea Level Pressure  
Sea Level Pressure 30.32 in    
Wind  
Wind Speed 3 mph (WNW)    
Max Wind Speed 7 mph    
Max Gust Speed -    
Visibility 9 miles    
Events Snow    
Averages and records for this station are not official NWS values.
T = Trace of Precipitation, MM = Missing Value Source: NWS Daily Summary

Daily Weather History Graph

Daily Weather History Graph

Search for Another Location

Airport or City:

Trip Planner

Search our weather history database for the weather conditions in past years. The results will help you decide how hot, cold, wet, or windy it might be!

Date:

Astronomy

Dec. 31, 2012 Rise Set
Actual Time 7:38 AM PST 4:09 PM PST
Civil Twilight 7:03 AM PST 4:45 PM PST
Nautical Twilight 6:23 AM PST 5:24 PM PST
Astronomical Twilight 5:46 AM PST 6:01 PM PST
Moon 8:01 PM PST (12/31) 9:08 AM PST (12/31)
Length of Visible Light 9h 41m
Length of Day
8h 30m
Waning Gibbous, 89% of the Moon is Illuminated
Dec 31
Waning Gibbous
Jan 4
Last Quarter
Jan 11
New
Jan 18
First Quarter
Jan 26
Full

Hourly Weather History & Observations

Time (PST) Temp. Windchill Dew Point Humidity Pressure Visibility Wind Dir Wind Speed Gust Speed Precip Events Conditions
12:06 AM 23.0 °F 14.7 °F 23.0 °F 100% 30.25 in 10.0 mi WSW 6.9 mph - N/A   Overcast
12:21 AM 23.0 °F 14.7 °F 23.0 °F 100% 30.25 in 10.0 mi SW 6.9 mph - N/A   Overcast
12:31 AM 23.0 °F 14.7 °F 23.0 °F 100% 30.25 in 10.0 mi WSW 6.9 mph - N/A   Overcast
12:58 AM 22.8 °F 15.5 °F 22.8 °F 100% 30.37 in 10.0 mi SW 5.8 mph - 0.00 in   Overcast
1:06 AM 23.0 °F 15.8 °F 23.0 °F 100% 30.25 in 10.0 mi SW 5.8 mph - N/A   Overcast
1:21 AM 23.0 °F 17.0 °F 23.0 °F 100% 30.25 in 10.0 mi SW 4.6 mph - N/A   Overcast
1:46 AM 23.0 °F 17.0 °F 23.0 °F 100% 30.25 in 10.0 mi West 4.6 mph - N/A   Overcast
1:56 AM 23.0 °F 18.4 °F 23.0 °F 100% 30.25 in 9.0 mi West 3.5 mph - N/A   Overcast
1:58 AM 22.6 °F 16.5 °F 22.6 °F 100% 30.37 in 8.0 mi West 4.6 mph - 0.00 in   Overcast
2:33 AM 23.0 °F 17.0 °F 23.0 °F 100% 30.26 in 10.0 mi West 4.6 mph - N/A   Overcast
2:58 AM 22.5 °F 16.3 °F 22.5 °F 100% 30.37 in 10.0 mi West 4.6 mph - N/A   Overcast
3:08 AM 23.0 °F 17.0 °F 23.0 °F 100% 30.26 in 10.0 mi West 4.6 mph - N/A   Overcast
3:23 AM 23.0 °F 14.7 °F 23.0 °F 100% 30.26 in 10.0 mi West 6.9 mph - N/A   Overcast
3:28 AM 23.0 °F 14.7 °F 23.0 °F 100% 30.26 in 10.0 mi West 6.9 mph - N/A   Overcast
3:58 AM 22.1 °F 15.9 °F 22.1 °F 100% 30.36 in 10.0 mi West 4.6 mph - N/A   Overcast
4:58 AM 22.1 °F 15.9 °F 22.1 °F 100% 30.36 in 10.0 mi West 4.6 mph - N/A   Overcast
5:23 AM 21.2 °F - 21.2 °F 100% 30.25 in 10.0 mi West 2.3 mph - N/A   Overcast
5:58 AM 22.1 °F - 22.1 °F 100% 30.36 in 10.0 mi South 1.2 mph - N/A   Overcast
6:58 AM 22.1 °F - 22.1 °F 100% 30.36 in 10.0 mi Calm Calm - N/A   Overcast
7:58 AM 22.1 °F - 22.1 °F 100% 30.36 in 10.0 mi North 2.3 mph - N/A   Overcast
8:48 AM 23.0 °F - 23.0 °F 100% 30.26 in 10.0 mi NE 2.3 mph - N/A   Overcast
8:55 AM 23.0 °F - 23.0 °F 100% 30.26 in 10.0 mi ENE 2.3 mph - N/A   Overcast
8:58 AM 22.5 °F - 22.5 °F 100% 30.37 in 10.0 mi ENE 2.3 mph - 0.00 in   Overcast
9:05 AM 23.0 °F - 23.0 °F 100% 30.26 in 10.0 mi NE 2.3 mph - N/A   Overcast
9:30 AM 23.0 °F 18.4 °F 23.0 °F 100% 30.26 in 10.0 mi NNE 3.5 mph - N/A Snow Light Snow
9:58 AM 23.4 °F 18.9 °F 23.4 °F 100% 30.38 in 10.0 mi North 3.5 mph - 0.00 in Snow Light Snow
10:05 AM 23.0 °F 18.4 °F 23.0 °F 100% 30.27 in 10.0 mi NE 3.5 mph - N/A   Overcast
10:15 AM 23.0 °F 18.4 °F 23.0 °F 100% 30.27 in 10.0 mi NE 3.5 mph - N/A   Overcast
10:20 AM 23.0 °F - 23.0 °F 100% 30.27 in 10.0 mi Calm Calm - N/A   Overcast
10:23 AM 23.0 °F - 23.0 °F 100% 30.27 in 10.0 mi ENE 1.2 mph - N/A Snow Light Snow
10:49 AM 23.0 °F - 23.0 °F 100% 30.27 in 10.0 mi Calm Calm - N/A   Overcast
10:54 AM 23.0 °F - 23.0 °F 100% 30.27 in 10.0 mi Calm Calm - N/A   Overcast
10:58 AM 23.2 °F - 23.2 °F 100% 30.38 in 10.0 mi Calm Calm - 0.00 in   Overcast
11:23 AM 23.0 °F - 23.0 °F 100% 30.27 in 10.0 mi Calm Calm - N/A   Overcast
11:56 AM 23.0 °F - 23.0 °F 100% 30.27 in 10.0 mi Calm Calm - N/A   Overcast
11:58 AM 23.0 °F - 23.0 °F 100% 30.38 in 10.0 mi Calm Calm - N/A   Overcast
12:23 PM 23.0 °F - 23.0 °F 100% 30.27 in 10.0 mi Calm Calm - N/A   Overcast
12:39 PM 24.8 °F - 24.8 °F 100% 30.27 in 10.0 mi Calm Calm - N/A   Overcast
12:53 PM 24.8 °F - 24.8 °F 100% 30.27 in 10.0 mi Calm Calm - N/A   Overcast
12:57 PM 24.8 °F - 24.8 °F 100% 30.27 in 10.0 mi Calm Calm - N/A   Overcast
12:58 PM 24.3 °F - 24.3 °F 100% 30.38 in 10.0 mi Calm Calm - 0.00 in   Overcast
1:06 PM 24.8 °F - 24.8 °F 100% 30.27 in 10.0 mi Calm Calm - N/A   Overcast
1:11 PM 24.8 °F - 24.8 °F 100% 30.27 in 10.0 mi Calm Calm - N/A   Overcast
1:16 PM 24.8 °F - 24.8 °F 100% 30.27 in 10.0 mi Calm Calm - N/A   Overcast
1:51 PM 24.8 °F - 24.8 °F 100% 30.27 in 10.0 mi Calm Calm - N/A   Overcast
1:58 PM 24.4 °F - 24.4 °F 100% 30.38 in 10.0 mi Calm Calm - 0.00 in   Overcast
2:08 PM 24.8 °F - 24.8 °F 100% 30.27 in 10.0 mi Calm Calm - N/A   Overcast
2:21 PM 24.8 °F - 24.8 °F 100% 30.28 in 10.0 mi Calm Calm - N/A   Overcast
2:31 PM 24.8 °F - 24.8 °F 100% 30.28 in 10.0 mi Calm Calm - N/A   Overcast
2:53 PM 24.8 °F - 24.8 °F 100% 30.28 in 10.0 mi Calm Calm - N/A   Overcast
2:58 PM 24.4 °F - 24.4 °F 100% 30.38 in 10.0 mi Calm Calm - 0.00 in   Overcast
3:27 PM 24.8 °F - 24.8 °F 100% 30.29 in 10.0 mi Calm Calm - N/A   Overcast
3:35 PM 23.0 °F - 23.0 °F 100% 30.29 in 10.0 mi Calm Calm - N/A   Overcast
3:52 PM 23.0 °F - 23.0 °F 100% 30.29 in 10.0 mi Calm Calm - N/A   Overcast
3:58 PM 22.6 °F - 22.6 °F 100% 30.40 in 10.0 mi Calm Calm - 0.00 in   Overcast
4:42 PM 19.4 °F - 19.4 °F 100% 30.30 in 10.0 mi Calm Calm - N/A Snow Light Snow
4:58 PM 20.3 °F - 20.3 °F 100% 30.42 in 10.0 mi Calm Calm - 0.00 in Snow Light Snow
5:05 PM 19.4 °F - 19.4 °F 100% 30.30 in 10.0 mi Calm Calm - N/A   Scattered Clouds
5:35 PM 19.4 °F - 19.4 °F 100% 30.30 in 10.0 mi Calm Calm - N/A Snow Light Snow
5:55 PM 19.4 °F - 19.4 °F 100% 30.30 in 10.0 mi Calm Calm - N/A   Clear
5:58 PM 19.0 °F - 18.9 °F 99% 30.42 in 10.0 mi Calm Calm - 0.00 in   Clear
6:06 PM 17.6 °F - 17.6 °F 100% 30.30 in 10.0 mi Calm Calm - N/A Snow Light Snow
6:25 PM 19.4 °F 11.5 °F 19.4 °F 100% 30.30 in 10.0 mi NNW 5.8 mph - N/A   Clear
6:40 PM 19.4 °F 12.8 °F 19.4 °F 100% 30.30 in 10.0 mi NW 4.6 mph - N/A Snow Light Snow
6:48 PM 17.6 °F 10.7 °F 17.6 °F 100% 30.30 in 5.0 mi NW 4.6 mph - N/A   Clear
6:58 PM 18.5 °F 13.3 °F 18.5 °F 100% 30.43 in 4.0 mi WNW 3.5 mph - 0.00 in   Partly Cloudy
7:58 PM 14.0 °F 5.1 °F 14.0 °F 100% 30.45 in 10.0 mi WNW 5.8 mph - N/A   Clear
8:21 PM 14.0 °F 8.2 °F 14.0 °F 100% 30.32 in 10.0 mi WNW 3.5 mph - N/A Snow Light Snow
8:31 PM 12.2 °F - 12.2 °F 100% 30.32 in 10.0 mi West 2.3 mph - N/A   Clear
8:46 PM 12.2 °F 4.3 °F 12.2 °F 100% 30.33 in 1.5 mi NW 4.6 mph - N/A   Clear
8:47 PM 12.2 °F 4.3 °F 12.2 °F 100% 30.33 in 1.5 mi NW 4.6 mph - N/A Snow Light Snow
8:52 PM 14.0 °F 5.1 °F 14.0 °F 100% 30.33 in 1.8 mi NW 5.8 mph - N/A Snow Light Snow
8:57 PM 15.8 °F 7.2 °F 15.8 °F 100% 30.34 in 6.0 mi NW 5.8 mph - N/A Snow Light Snow
8:58 PM 15.6 °F 7.0 °F 15.6 °F 100% 30.47 in 6.0 mi NW 5.8 mph - 0.00 in Snow Light Snow
9:13 PM 15.8 °F 8.6 °F 15.8 °F 100% 30.34 in 8.0 mi WNW 4.6 mph - N/A   Clear
9:58 PM 10.8 °F - 10.8 °F 100% 30.48 in 10.0 mi NW 2.3 mph - 0.00 in   Clear
10:58 PM 13.1 °F 7.1 °F 13.1 °F 100% 30.51 in 10.0 mi West 3.5 mph - N/A   Clear
11:43 PM 10.4 °F - 10.4 °F 100% 30.37 in 6.0 mi WSW 2.3 mph - N/A   Mostly Cloudy
11:58 PM 10.4 °F 2.2 °F 10.4 °F 100% 30.51 in 4.0 mi WNW 4.6 mph - N/A   Overcast